Flag for Belgium Weather past 2 weeks in Kortrijk, Belgium

Now
52 °F

Clear.


Feels Like: 47 °F
Forecast: 53 / 64 °F
Wind: 14 mph from South

Location: Lille Airport

Current Time: Jun 2, 2015 at 5:38:37 AM

Latest Report: Jun 2, 2015 at 5:00 AM


Visibility: 10 mi

Pressure: 29.80 "Hg

Humidity: 82%

Dew point: 46 °F

Location of KortrijkLocation

Historic Weather in Kortrijk — Graph

°F

Kortrijk temperature yesterday

Maximum temperature yesterday: 61 °F (at 4:00 PM)
Minimum temperature yesterday: 46 °F (at 4:30 AM)
Average temperature yesterday: 54 °F

Past Weeks' High & Low Weather Summary

 TemperatureHumidityPressure
High70 °F (May 24, 5:30 PM)100% (May 21, 4:30 AM)30.36 "Hg (May 21, 4:30 AM)
Low41 °F (May 21, 4:30 AM)34% (May 21, 4:30 PM)29.68 "Hg (May 18, 7:30 PM)
Average55 °F70%30.04 "Hg
* Reported May 18 4:00 AM — Jun 2 4:30 AM, Kortrijk, Weather by CustomWeather, © 2015

Note: Actual official high and low records may vary slightly from our data, if they occured in-between our weather recording intervals... More about our weather records

Advertising

Kortrijk weather history for previous 24 hours

 ConditionsComfort  
Time TempWeatherWind HumidityBarometerVisibility
4:30 AM
Tue, Jun 2
52 °FLight rain. Overcast.14 mph82%29.83 "HgN/A
4:00 AM52 °FLight rain. Overcast.14 mph82%29.83 "HgN/A
3:30 AM52 °FLight rain. Overcast.13 mph88%29.83 "HgN/A
3:00 AM54 °FLight rain. Overcast.13 mph77%29.83 "HgN/A
2:30 AM54 °FLight rain. Overcast.12 mph77%29.86 "HgN/A
2:00 AM55 °FLight rain. Overcast.12 mph67%29.86 "HgN/A
1:30 AM55 °FClear.12 mph63%29.86 "Hg10 mi
1:00 AM55 °FClear.12 mph63%29.89 "Hg10 mi
12:30 AM55 °FClear.10 mph59%29.89 "Hg10 mi
12:00 AM57 °FClear.10 mph55%29.89 "Hg10 mi
11:30 PM
Mon, Jun 1
57 °FClear.9 mph55%29.89 "Hg10 mi
11:00 PM57 °FClear.9 mph55%29.89 "Hg10 mi
10:30 PM57 °FSunny.10 mph55%29.92 "Hg10 mi
10:00 PM57 °FSunny.8 mph55%29.92 "Hg10 mi
9:30 PM57 °FSunny.8 mph55%29.92 "Hg10 mi
9:00 PM59 °FSunny.9 mph48%29.92 "Hg10 mi
8:30 PM59 °FSunny.10 mph48%29.95 "Hg10 mi
8:00 PM59 °FSunny.8 mph48%29.95 "Hg10 mi
7:30 PM61 °FSunny.9 mph45%29.95 "Hg10 mi
7:00 PM61 °FSunny.10 mph45%29.98 "Hg10 mi
6:30 PM61 °FSunny.13 mph45%29.98 "Hg10 mi
6:00 PM61 °FSunny.12 mph42%29.98 "Hg10 mi
5:30 PM61 °FPassing clouds.13 mph45%30.01 "HgN/A
5:00 PM61 °FPartly sunny.10 mph42%30.01 "HgN/A
4:30 PM61 °FSunny.12 mph48%30.01 "Hg10 mi
4:00 PM61 °FPartly sunny.13 mph48%30.01 "HgN/A
3:30 PM59 °FMore clouds than sun.12 mph51%30.04 "HgN/A
3:00 PM57 °FMostly cloudy.7 mph59%30.04 "HgN/A
2:30 PM59 °FPartly sunny.12 mph51%30.04 "HgN/A
2:00 PM59 °FSunny.10 mph42%30.04 "Hg10 mi
1:30 PM59 °FPartly sunny.9 mph48%30.04 "HgN/A
1:00 PM59 °FBroken clouds.9 mph48%30.04 "HgN/A
12:30 PM57 °FMostly cloudy.9 mph48%30.07 "HgN/A
12:00 PM57 °FMostly cloudy.8 mph51%30.04 "HgN/A
11:30 AM55 °FMore clouds than sun.9 mph51%30.04 "HgN/A
11:00 AM55 °FPassing clouds.8 mph59%30.04 "HgN/A
10:30 AM54 °FSunny.9 mph67%30.04 "Hg10 mi
10:00 AM54 °FSunny.10 mph67%30.04 "Hg10 mi
9:30 AM52 °FPassing clouds.6 mph77%30.04 "HgN/A
9:00 AM50 °FSunny.7 mph82%30.04 "Hg10 mi
8:30 AM50 °FPassing clouds.7 mph82%30.04 "HgN/A
8:00 AM48 °FPassing clouds.6 mph87%30.04 "HgN/A
7:30 AM48 °FSunny.6 mph87%30.04 "Hg10 mi
7:00 AM46 °FPartly sunny.6 mph93%30.01 "HgN/A
6:30 AM46 °FClear.5 mph93%30.01 "Hg10 mi
6:00 AM46 °FClear.3 mph93%30.01 "Hg10 mi
5:30 AM46 °FClear.3 mph87%30.01 "Hg10 mi
5:00 AM46 °FClear.3 mph93%29.98 "Hg10 mi
Weather by CustomWeather, © 2015

See weather overviewHow to use our weather pages